Date String (YYYY-MM-DD hh:mm:ss) UTC,Instrument flags,absolute air pressure of the measurement (hPa),sample flow rate (lpm),inlet stack bypass flow (lpm),air temperature of the measurement (°C),ambient temperature measured by the external sensor (°C),aerosol sample conditioner tube jacket temperature (°C),OPC LED temperature (°C),internal box temperature (°C),relative humidity of the measurement (%),span deviation,mass concentration of particles derived from Lorenz-Mie calculation of OPC scattering (μg/m³),mass concentration of particles derived from Lorenz-Mie calculation of OPC scattering (μg/m³),mass concentration of particles derived from Lorenz-Mie calculation of OPC scattering (μg/m³)
DateTimeUTC,F1_M11,P_M11,Q1_M11,Q2_M11,T1_M11,T2_M11,T3_M11,T4_M11,T5_M11,U1_M11,ZSPAN_M11,X0_M11,X2_M11,X1_M11
2023-08-08 22:00:00,SystemResetWarning,0829.7,5.00,000.00,029.0,027.1,000.0,037.3,030.7,25.3,0000.0,0011.52,0005.21,0004.59
2023-08-08 22:01:00,SystemResetWarning,0829.7,5.01,000.00,029.1,027.4,000.0,037.4,030.8,25.3,0000.0,0011.53,0005.24,0004.61
2023-08-08 22:02:00,SystemResetWarning,0829.7,5.00,000.00,029.1,027.6,000.0,037.4,030.9,24.9,0000.0,0011.48,0005.28,0004.63
2023-08-08 22:03:00,SystemResetWarning,0829.7,4.98,000.00,029.2,026.8,000.0,037.3,030.8,25.0,0000.0,0011.52,0005.33,0004.66
2023-08-08 22:04:00,SystemResetWarning,0829.7,5.00,000.00,029.1,025.2,000.0,037.2,030.5,25.2,0000.0,0012.28,0005.36,0004.68
2023-08-08 22:05:00,SystemResetWarning,0829.6,5.01,000.00,029.0,024.8,000.0,037.2,030.3,25.5,0000.0,0012.47,0005.38,0004.69
2023-08-08 22:06:00,SystemResetWarning,0829.6,5.01,000.00,028.9,025.1,000.0,037.2,030.2,25.6,0000.0,0012.04,0005.40,0004.71
2023-08-08 22:07:00,SystemResetWarning,0829.6,5.00,000.00,028.9,025.5,000.0,037.2,030.3,26.1,0000.0,0012.09,0005.38,0004.71
2023-08-08 22:08:00,SystemResetWarning,0829.6,5.00,000.00,028.9,026.0,000.0,037.3,030.4,25.6,0000.0,0012.22,0005.44,0004.73
2023-08-08 22:09:00,SystemResetWarning,0829.6,5.00,000.00,028.9,026.4,000.0,037.3,030.5,26.1,0000.0,0012.23,0005.48,0004.74
2023-08-08 22:10:00,SystemResetWarning,0829.6,4.99,000.00,028.9,026.9,000.0,037.3,030.6,26.2,0000.0,0012.19,0005.47,0004.75
2023-08-08 22:11:00,SystemResetWarning,0829.6,5.00,000.00,029.0,027.2,000.0,037.3,030.8,26.3,0000.0,0012.14,0005.47,0004.76
2023-08-08 22:12:00,SystemResetWarning,0829.7,5.00,000.00,029.0,027.5,000.0,037.4,030.8,27.1,0000.0,0012.16,0005.49,0004.77
2023-08-08 22:13:00,SystemResetWarning,0829.7,5.01,000.00,029.1,027.6,000.0,037.4,030.9,27.5,0000.0,0012.13,0005.50,0004.77
2023-08-08 22:14:00,SystemResetWarning,0829.7,4.98,000.00,029.1,026.3,000.0,037.3,030.7,27.3,0000.0,0011.66,0005.50,0004.77
2023-08-08 22:15:00,SystemResetWarning,0829.7,5.01,000.00,029.0,024.9,000.0,037.2,030.4,27.5,0000.0,0010.79,0005.48,0004.77
2023-08-08 22:16:00,SystemResetWarning,0829.7,5.01,000.00,028.9,024.8,000.0,037.1,030.3,27.9,0000.0,0009.92,0005.45,0004.76
2023-08-08 22:17:00,SystemResetWarning,0829.7,5.00,000.00,028.9,025.2,000.0,037.1,030.2,28.3,0000.0,0009.65,0005.40,0004.75
2023-08-08 22:18:00,SystemResetWarning,0829.7,5.00,000.00,028.8,025.6,000.0,037.2,030.3,28.6,0000.0,0009.05,0005.39,0004.75
2023-08-08 22:19:00,SystemResetWarning,0829.6,5.00,000.00,028.8,026.1,000.0,037.2,030.4,28.9,0000.0,0009.33,0005.35,0004.74
2023-08-08 22:20:00,SystemResetWarning,0829.7,5.00,000.00,028.9,026.5,000.0,037.2,030.5,29.5,0000.0,0009.48,0005.34,0004.74
2023-08-08 22:21:00,SystemResetWarning,0829.7,5.00,000.00,028.9,026.9,000.0,037.3,030.6,29.3,0000.0,0009.53,0005.39,0004.75
2023-08-08 22:22:00,SystemResetWarning,0829.6,5.00,000.00,029.0,027.3,000.0,037.3,030.7,29.1,0000.0,0009.70,0005.45,0004.77
2023-08-08 22:23:00,SystemResetWarning,0829.6,5.00,000.00,029.0,027.5,000.0,037.3,030.8,29.8,0000.0,0009.95,0005.46,0004.79
2023-08-08 22:24:00,SystemResetWarning,0829.6,5.00,000.00,029.1,027.7,000.0,037.4,030.9,29.3,0000.0,0009.93,0005.46,0004.80
2023-08-08 22:25:00,SystemResetWarning,0829.5,4.98,000.00,029.1,026.7,000.0,037.3,030.7,28.8,0000.0,0010.01,0005.48,0004.80
2023-08-08 22:26:00,SystemResetWarning,0829.5,5.00,000.00,029.0,025.2,000.0,037.2,030.4,29.2,0000.0,0010.27,0005.49,0004.80
2023-08-08 22:27:00,SystemResetWarning,0829.4,5.01,000.00,028.9,024.8,000.0,037.1,030.3,30.0,0000.0,0010.33,0005.52,0004.81
2023-08-08 22:28:00,SystemResetWarning,0829.4,5.01,000.00,028.8,025.1,000.0,037.1,030.1,29.7,0000.0,0010.63,0005.57,0004.82
2023-08-08 22:29:00,SystemResetWarning,0829.4,5.00,000.00,028.8,025.5,000.0,037.2,030.2,28.9,0000.0,0011.62,0005.62,0004.82
2023-08-08 22:30:00,SystemResetWarning,0829.5,5.00,000.00,028.8,026.0,000.0,037.2,030.4,28.9,0000.0,0012.16,0005.65,0004.84
2023-08-08 22:31:00,SystemResetWarning,0829.5,5.00,000.00,028.8,026.5,000.0,037.2,030.5,29.0,0000.0,0012.88,0005.67,0004.85
2023-08-08 22:32:00,SystemResetWarning,0829.5,5.00,000.00,028.9,026.8,000.0,037.3,030.6,28.3,0000.0,0012.81,0005.64,0004.86
2023-08-08 22:33:00,SystemResetWarning,0829.4,5.00,000.00,028.9,027.2,000.0,037.3,030.7,28.6,0000.0,0012.85,0005.62,0004.85
2023-08-08 22:34:00,SystemResetWarning,0829.4,5.00,000.00,029.0,027.5,000.0,037.3,030.8,28.3,0000.0,0012.55,0005.63,0004.84
2023-08-08 22:35:00,SystemResetWarning,0829.4,4.99,000.00,029.0,027.7,000.0,037.3,030.9,27.8,0000.0,0012.70,0005.64,0004.84
2023-08-08 22:36:00,SystemResetWarning,0829.4,4.98,000.00,029.1,027.0,000.0,037.3,030.8,28.1,0000.0,0013.70,0005.69,0004.85
2023-08-08 22:37:00,SystemResetWarning,0829.3,5.01,000.00,029.0,025.3,000.0,037.2,030.5,28.0,0000.0,0013.73,0005.72,0004.88
2023-08-08 22:38:00,SystemResetWarning,0829.3,5.00,000.00,028.9,024.7,000.0,037.1,030.3,27.9,0000.0,0013.98,0005.76,0004.91
2023-08-08 22:39:00,SystemResetWarning,0829.3,5.01,000.00,028.9,025.0,000.0,037.1,030.2,27.3,0000.0,0014.42,0005.79,0004.93
2023-08-08 22:40:00,SystemResetWarning,0829.3,5.01,000.00,028.8,025.4,000.0,037.1,030.2,27.6,0000.0,0013.93,0005.83,0004.95
2023-08-08 22:41:00,SystemResetWarning,0829.3,4.99,000.00,028.8,025.8,000.0,037.2,030.3,27.3,0000.0,0014.11,0005.83,0004.98
2023-08-08 22:42:00,SystemResetWarning,0829.3,5.00,000.00,028.8,026.3,000.0,037.2,030.4,27.1,0000.0,0013.33,0005.86,0005.01
2023-08-08 22:43:00,SystemResetWarning,0829.3,5.00,000.00,028.9,026.7,000.0,037.2,030.6,27.1,0000.0,0014.06,0005.93,0005.03
2023-08-08 22:44:00,SystemResetWarning,0829.4,5.00,000.00,028.9,027.1,000.0,037.3,030.7,26.7,0000.8,0014.26,0005.98,0005.05
2023-08-08 22:45:00,SystemResetWarning,0829.3,5.00,000.00,028.9,027.4,000.0,037.3,030.7,27.2,0000.1,0014.37,0006.03,0005.08
2023-08-08 22:46:00,SystemResetWarning,0829.4,5.01,000.00,029.0,027.6,000.0,037.3,030.8,27.8,0000.6,0014.38,0006.11,0005.12
2023-08-08 22:47:00,SystemResetWarning,0829.4,4.99,000.00,029.1,027.3,000.0,037.3,030.8,27.9,0001.0,0013.87,0006.15,0005.15
2023-08-08 22:48:00,SystemResetWarning,0829.3,4.99,000.00,029.0,025.7,000.0,037.2,030.5,27.7,0001.0,0013.88,0006.18,0005.16
2023-08-08 22:49:00,SystemResetWarning,0829.2,5.01,000.00,028.9,024.8,000.0,037.1,030.3,28.0,0000.1,0013.85,0006.20,0005.16
2023-08-08 22:50:00,SystemResetWarning,0829.2,5.01,000.00,028.9,025.0,000.0,037.1,030.2,28.4,0000.0,0013.66,0006.22,0005.17
2023-08-08 22:51:00,SystemResetWarning,0829.2,5.00,000.00,028.8,025.3,000.0,037.1,030.2,27.8,0002.1,0014.87,0006.24,0005.17
2023-08-08 22:52:00,SystemResetWarning,0829.3,5.00,000.00,028.8,025.8,000.0,037.1,030.3,27.7,0002.0,0014.68,0006.25,0005.17
2023-08-08 22:53:00,SystemResetWarning,0829.3,5.00,000.00,028.8,026.2,000.0,037.2,030.4,27.9,0002.0,0014.58,0006.27,0005.17
2023-08-08 22:54:00,SystemResetWarning,0829.2,4.99,000.00,028.8,026.6,000.0,037.2,030.5,28.0,0001.6,0014.27,0006.27,0005.18
2023-08-08 22:55:00,SystemResetWarning,0829.2,5.01,000.00,028.9,027.0,000.0,037.2,030.7,27.9,0001.3,0014.18,0006.32,0005.19
2023-08-08 22:56:00,SystemResetWarning,0829.3,5.00,000.00,028.9,027.3,000.0,037.3,030.7,27.5,0000.9,0014.12,0006.30,0005.19
2023-08-08 22:57:00,SystemResetWarning,0829.2,5.00,000.00,029.0,027.6,000.0,037.3,030.8,28.4,0000.2,0014.08,0006.22,0005.16
2023-08-08 22:58:00,SystemResetWarning,0829.2,4.99,000.00,029.0,027.5,000.0,037.3,030.8,28.3,-000.4,0015.04,0006.11,0005.14
2023-08-08 22:59:00,SystemResetWarning,0829.2,5.00,000.00,029.0,026.1,000.0,037.2,030.6,28.0,-000.7,0015.67,0006.11,0005.13
